Change the Weather History Date:

Monday, September 24, 2012

  Actual Average Record
Temperature  
Mean Temperature 59 °F -  
Max Temperature 68 °F 68 °F 75 °F (2003)
Min Temperature 50 °F 47 °F 39 °F (2007)
Degree Days  
Heating Degree Days 6    
Growing Degree Days 9 (Base 50)    
Moisture  
Dew Point 48 °F    
Average Humidity 71    
Maximum Humidity 94    
Minimum Humidity 46    
Precipitation  
Precipitation 0.00 in - - ()
Sea Level Pressure  
Sea Level Pressure 30.22 in    
Wind  
Wind Speed 6 mph ()    
Max Wind Speed 16 mph    
Max Gust Speed -    
Visibility 7.8 miles    
Events      
Averages and records for this station are not official NWS values.
T = Trace of Precipitation, MM = Missing Value Source: Averaged Metar Reports

Daily Weather History Graph

Daily Weather History Graph

Search for Another Location

Airport or City:

Trip Planner

Search our weather history database for the weather conditions in past years. The results will help you decide how hot, cold, wet, or windy it might be!

Date:

Astronomy

Sep. 24, 2012 Rise Set
Actual Time 7:27 AM CDT 7:32 PM CDT
Civil Twilight 7:05 AM CDT 7:54 PM CDT
Nautical Twilight 6:40 AM CDT 8:19 PM CDT
Astronomical Twilight 6:14 AM CDT 8:45 PM CDT
Moon 3:44 PM CDT (9/24) 2:25 AM CDT (9/24)
Length of Visible Light 12h 48m
Length of Day
12h 04m
Waxing Gibbous, 71% of the Moon is Illuminated
Sep 24
Waxing Gibbous
Sep 29
Full
Oct 8
Last Quarter
Oct 15
New
Oct 21
First Quarter

Hourly Weather History & Observations

Time (CDT) Temp. Dew Point Humidity Pressure Visibility Wind Dir Wind Speed Gust Speed Precip Events Conditions
12:51 AM 55.4 °F 48.2 °F 77% 29.90 in 5.0 mi NE 8.1 mph - N/A   Mostly Cloudy
1:42 AM 55.4 °F 48.2 °F 77% 30.46 in 5.0 mi Calm Calm - N/A   Mostly Cloudy
2:40 AM 51.8 °F 48.2 °F 88% 30.42 in 5.0 mi WNW 4.6 mph - N/A   Mostly Cloudy
3:49 AM 53.6 °F 48.2 °F 82% 29.83 in 4.0 mi NNW 5.8 mph - N/A   Mostly Cloudy
4:42 AM 53.6 °F 48.2 °F 82% 30.40 in 3.0 mi Calm Calm - N/A   Mostly Cloudy
5:44 AM 51.8 °F 48.2 °F 88% 30.41 in 3.0 mi West 3.5 mph - N/A   Mostly Cloudy
6:49 AM 50.0 °F 46.4 °F 87% 29.89 in 5.0 mi NW 3.5 mph - N/A   Mostly Cloudy
7:43 AM 51.8 °F 48.2 °F 88% 30.43 in 6.0 mi WSW 3.5 mph - N/A   Overcast
8:44 AM 53.6 °F 48.2 °F 82% 30.44 in 8.0 mi West 4.6 mph - N/A   Mostly Cloudy
9:43 AM 57.2 °F 48.2 °F 72% 29.94 in 8.0 mi WNW 5.8 mph - N/A   Overcast
10:45 AM 59.0 °F 48.2 °F 67% 30.47 in 10.0 mi ENE 9.2 mph - N/A   Mostly Cloudy
11:43 AM 62.6 °F 48.2 °F 59% 30.46 in 10.0 mi NE 11.5 mph - N/A   Mostly Cloudy
12:45 PM 62.6 °F 48.2 °F 59% 29.88 in 12.0 mi ENE 5.8 mph - N/A   Mostly Cloudy
1:44 PM 66.2 °F 48.2 °F 52% 30.40 in 12.0 mi NE 11.5 mph - N/A   Mostly Cloudy
2:44 PM 68.0 °F 48.2 °F 49% 30.38 in 12.0 mi ENE 13.8 mph - N/A   Mostly Cloudy
3:45 PM 68.0 °F 46.4 °F 46% 29.72 in 12.0 mi ENE 11.5 mph - N/A   Mostly Cloudy
4:45 PM 68.0 °F 46.4 °F 46% 30.31 in 12.0 mi NE 13.8 mph - N/A   Mostly Cloudy
5:45 PM 50.0 °F 48.2 °F 94% 30.30 in 12.0 mi NE 13.8 mph - N/A   Mostly Cloudy
6:42 PM 62.6 °F 48.2 °F 59% 29.78 in 7.0 mi ENE 16.1 mph - N/A   Mostly Cloudy
7:42 PM 59.0 °F 48.2 °F 67% 30.34 in 7.0 mi ENE 13.8 mph - N/A   Mostly Cloudy
8:43 PM 59.0 °F 48.2 °F 67% 30.36 in 7.0 mi ENE 12.7 mph - N/A   Mostly Cloudy
9:45 PM 57.2 °F 48.2 °F 72% 29.87 in 7.0 mi ENE 9.2 mph - N/A   Mostly Cloudy
10:45 PM 57.2 °F 46.4 °F 67% 30.40 in 7.0 mi ENE 9.2 mph - N/A   Mostly Cloudy
11:45 PM 55.4 °F 46.4 °F 72% 30.40 in 7.0 mi NE 9.2 mph - N/A   Scattered Clouds